Location: Limerick
(52.6800°N, 8.6400°W)
Time: 08:46:28
(UTC+01:00)

Sapphire - Visible Passes

Search period start: 28 June 2016 00:00
Search period end: 08 July 2016 00:00
Orbit: 785 x 797 km, 67.1° (Epoch: 27 June)

Date Brightness Start Highest point End Pass type
(mag) Time Alt. Az. Time Alt. Az. Time Alt. Az.
28 Jun ? 03:25:48 11° S 03:30:32 39° ESE 03:35:35 10° NE visible
29 Jun ? 02:55:57 13° S 03:00:02 31° ESE 03:04:45 10° NE visible
30 Jun ? 02:26:05 13° SSE 02:29:34 24° ESE 02:33:51 10° ENE visible
30 Jun ? 04:07:02 10° SW 04:12:29 77° NW 04:17:58 10° NE visible
01 Jul ? 01:56:10 12° SE 01:59:08 18° ESE 02:02:47 10° ENE visible
01 Jul ? 03:36:53 13° SW 03:41:50 86° SE 03:47:19 10° NE visible
02 Jul ? 01:26:12 10° SE 01:28:45 14° ESE 01:31:27 10° ENE visible
02 Jul ? 03:06:55 16° SSW 03:11:13 69° ESE 03:16:39 10° NE visible
03 Jul ? 00:57:59 10° ESE 00:58:24 10° E 00:58:50 10° E visible
03 Jul ? 02:36:55 19° S 02:40:38 54° ESE 02:45:57 10° NE visible
03 Jul ? 04:19:08 10° WSW 04:24:16 41° NW 04:29:26 10° NNE visible
04 Jul ? 02:06:53 21° S 02:10:05 42° ESE 02:15:12 10° NE visible
04 Jul ? 03:48:14 10° WSW 03:53:30 49° NW 03:58:48 10° NNE visible
05 Jul ? 01:36:48 21° SSE 01:39:35 33° ESE 01:44:24 10° NE visible
05 Jul ? 03:17:31 11° SW 03:22:46 59° NW 03:28:11 10° NE visible
06 Jul ? 01:06:41 19° SSE 01:09:07 26° ESE 01:13:31 10° ENE visible
06 Jul ? 02:47:23 14° SW 02:52:04 73° NW 02:57:33 10° NE visible
06 Jul ? 04:31:52 10° W 04:36:23 26° NNW 04:40:55 10° NNE visible
07 Jul ? 00:36:31 16° SE 00:38:41 20° ESE 00:42:30 10° ENE visible
07 Jul ? 02:17:13 17° SW 02:21:25 89° NW 02:26:55 10° NE visible
07 Jul ? 04:00:48 10° W 04:05:32 29° NNW 04:10:16 10° NNE visible
